Location: Cahas Mountain Overlook
(37.0833°N, 80.1000°W)
Time: 01:20:18
(UTC-05:00)

S-56A Canister/Altair - All Passes

Search period start: 29 November 2023 00:00
Search period end: 09 December 2023 00:00
Orbit: 640 x 2489 km, 38.9° (Epoch: 28 November)

Date Brightness Start Highest point End Pass type
(mag) Time Alt. Az. Time Alt. Az. Time Alt. Az.
29 Nov - 11:36:55 10° S 11:39:08 13° SE 11:41:19 10° ESE daylight
29 Nov - 13:37:39 10° WSW 13:42:03 63° SSE 13:47:13 10° ENE daylight
29 Nov - 15:40:56 10° W 15:45:49 74° N 15:52:35 10° E daylight
29 Nov - 17:44:08 10° WNW 17:50:02 78° SSW 17:59:00 10° ESE visible
29 Nov - 19:47:50 10° W 19:54:30 35° SSW 20:03:58 10° SSE visible
29 Nov - 21:57:57 10° SW 21:59:15 10° SW 22:00:39 10° SSW visible
30 Nov - 11:05:04 10° SSE 11:06:09 11° SE 11:07:13 10° SE daylight
30 Nov - 13:04:46 10° SW 13:09:06 54° SSE 13:13:53 10° E daylight
30 Nov - 15:08:03 10° W 15:12:43 74° N 15:18:55 10° E daylight
30 Nov - 17:11:17 10° WNW 17:16:49 83° SSW 17:25:04 10° ESE daylight
30 Nov - 19:14:48 10° W 19:21:07 38° SSW 19:30:15 10° SSE visible
30 Nov - 21:22:43 10° WSW 21:25:47 12° SW 21:29:11 10° SSW visible
01 Dec - 12:31:51 10° SW 12:36:10 45° SSE 12:40:39 10° E daylight
01 Dec - 14:35:07 10° W 14:39:39 75° N 14:45:21 10° E daylight
01 Dec - 16:38:26 10° WNW 16:43:39 88° SSW 16:51:13 10° ESE daylight
01 Dec - 18:41:49 10° W 18:47:49 40° SSW 18:56:30 10° SE visible
01 Dec - 20:48:35 10° WSW 20:52:21 13° SW 20:56:41 10° SSW visible
02 Dec - 11:58:53 10° SW 12:03:14 38° SSE 12:07:27 10° E daylight
02 Dec - 14:02:10 10° W 14:06:37 78° N 14:11:54 10° E daylight
02 Dec - 16:05:35 10° WNW 16:10:32 86° NNE 16:17:27 10° ESE daylight
02 Dec - 18:08:54 10° W 18:14:33 44° SSW 18:22:46 10° SE visible
02 Dec - 20:14:50 10° WSW 20:18:58 15° SW 20:23:51 10° S visible
03 Dec - 11:25:54 10° SW 11:30:17 33° SSE 11:34:18 10° E daylight
03 Dec - 13:29:09 10° W 13:33:37 82° N 13:38:34 10° ENE daylight
03 Dec - 15:32:43 10° WNW 15:37:26 81° N 15:43:45 10° E daylight
03 Dec - 17:35:59 10° W 17:41:20 47° SSW 17:49:04 10° SE visible
03 Dec - 19:41:19 10° WSW 19:45:36 16° SW 19:50:49 10° S visible
04 Dec - 10:52:54 10° SSW 10:57:18 28° SSE 11:01:11 10° E daylight
04 Dec - 12:56:04 10° WSW 13:00:37 88° N 13:05:20 10° ENE daylight
04 Dec - 14:59:49 10° W 15:04:22 77° N 15:10:10 10° E daylight
04 Dec - 17:03:05 10° W 17:08:11 51° SSW 17:15:25 10° SE daylight
04 Dec - 19:07:57 10° WSW 19:12:17 18° SSW 19:17:41 10° S visible
05 Dec - 10:19:51 10° SSW 10:24:18 25° SSE 10:28:04 10° E daylight
05 Dec - 12:22:56 10° WSW 12:27:39 84° SSE 12:32:11 10° ENE daylight
05 Dec - 14:26:52 10° W 14:31:20 73° N 14:36:41 10° E daylight
05 Dec - 16:30:12 10° W 16:35:04 56° SSW 16:41:48 10° SE daylight
05 Dec - 18:34:42 10° WSW 18:39:01 19° SSW 18:44:28 10° S visible
06 Dec - 09:46:47 10° SSW 09:51:16 22° SSE 09:54:58 10° E daylight
06 Dec - 11:49:44 10° WSW 11:54:40 76° SSE 11:59:07 10° ENE daylight
06 Dec - 13:53:51 10° W 13:58:18 71° N 14:03:18 10° E daylight
06 Dec - 15:57:18 10° W 16:01:59 62° SSW 16:08:14 10° ESE daylight
06 Dec - 18:01:32 10° WSW 18:05:48 21° SSW 18:11:14 10° SSE visible
07 Dec - 09:13:42 10° SSW 09:18:10 20° SSE 09:21:51 10° ESE daylight
07 Dec - 11:16:27 10° WSW 11:21:40 68° SSE 11:26:06 10° ENE daylight
07 Dec - 13:20:46 10° W 13:25:17 70° N 13:30:01 10° E daylight
07 Dec - 15:24:24 10° WNW 15:28:56 69° SSW 15:34:45 10° ESE daylight
07 Dec - 17:28:25 10° W 17:32:37 22° SSW 17:37:59 10° SSE visible
08 Dec - 08:40:37 10° S 08:45:03 18° SSE 08:48:41 10° ESE daylight
08 Dec - 10:43:06 10° WSW 10:48:39 60° SSE 10:53:08 10° E daylight
08 Dec - 12:47:36 10° W 12:52:16 70° N 12:56:49 10° E daylight
08 Dec - 14:51:27 10° WNW 14:55:55 76° SSW 15:01:19 10° ESE daylight
08 Dec - 16:55:21 10° W 16:59:29 25° SSW 17:04:43 10° SSE daylight
